| time (UTC) | temp F | wind direction | speed MPH | gust MPH | rain 1hr in | rain 24hr in | rain mn in | humidity % | barometer mb |
| 20260506070421 | 75 | 177 | 8.0 | 10.0 | 0.00 | 0.00 | 0.00 | 88 | |
| 20260506062358 | 75 | 197 | 9.0 | 11.0 | 0.00 | 0.00 | 0.00 | 88 | |
| 20260506061854 | 75 | 181 | 9.0 | 11.0 | 0.00 | 0.00 | 0.00 | 88 | |
| 20260506061351 | 75 | 176 | 17.0 | 21.0 | 0.00 | 0.00 | 0.00 | 88 | |
| 20260506060849 | 75 | 193 | 6.0 | 11.0 | 0.00 | 0.00 | 0.00 | 88 | |
| 20260506060347 | 75 | 185 | 7.0 | 10.0 | 0.00 | 0.00 | 0.00 | 88 | |
| 20260506051318 | 75 | 191 | 5.0 | 14.0 | 0.00 | 0.00 | 0.00 | 89 | |
| 20260506050816 | 75 | 196 | 5.0 | 9.0 | 0.00 | 0.00 | 0.00 | 89 | |
| 20260506050314 | 75 | 166 | 5.0 | 8.0 | 0.00 | 0.00 | 0.00 | 89 | |
| 20260506044804 | 76 | 181 | 6.0 | 9.0 | 0.00 | 0.00 | 0.00 | 89 | |
| 20260506044301 | 76 | 186 | 1.0 | 7.0 | 0.00 | 0.00 | 0.00 | 89 | |
| 20260506043759 | 76 | 192 | 4.0 | 8.0 | 0.00 | 0.00 | 0.00 | 89 | |
| 20260506043256 | 76 | 148 | 7.0 | 10.0 | 0.00 | 0.00 | 0.00 | 88 | |
| 20260506042755 | 76 | 172 | 5.0 | 11.0 | 0.00 | 0.00 | 0.00 | 88 | |
| 20260506042253 | 75 | 165 | 7.0 | 10.0 | 0.00 | 0.00 | 0.00 | 89 | |
| 20260506041751 | 75 | 151 | 7.0 | 14.0 | 0.00 | 0.00 | 0.00 | 89 | |
| 20260506041248 | 75 | 135 | 5.0 | 10.0 | 0.00 | 0.00 | 0.00 | 89 | |
| 20260506040745 | 75 | 137 | 6.0 | 9.0 | 0.00 | 0.00 | 0.00 | 89 | |
| 20260506040242 | 75 | 130 | 4.0 | 10.0 | 0.00 | 0.00 | 0.00 | 89 | |
| 20260506035739 | 75 | 158 | 6.0 | 9.0 | 0.00 | 0.00 | 0.00 | 89 | |
| 20260506035236 | 75 | 163 | 5.0 | 7.0 | 0.00 | 0.00 | 0.00 | 89 | |
| 20260506034733 | 75 | 125 | 2.0 | 5.0 | 0.00 | 0.00 | 0.00 | 89 | |
| 20260506034230 | 75 | 165 | 3.0 | 7.0 | 0.00 | 0.00 | 0.00 | 88 | |
| 20260506033727 | 76 | 163 | 3.0 | 8.0 | 0.00 | 0.00 | 0.00 | 88 | |
| 20260506033224 | 76 | 146 | 3.0 | 8.0 | 0.00 | 0.00 | 0.00 | 88 | |
| 20260506032721 | 76 | 162 | 3.0 | 10.0 | 0.00 | 0.00 | 0.00 | 87 | |
| 20260506032218 | 76 | 189 | 6.0 | 8.0 | 0.00 | 0.00 | 0.00 | 87 | |
| 20260506031714 | 76 | 176 | 7.0 | 9.0 | 0.00 | 0.00 | 0.00 | 87 | |
| 20260506031212 | 76 | 184 | 5.0 | 7.0 | 0.00 | 0.00 | 0.00 | 86 | |
| 20260506030710 | 76 | 132 | 4.0 | 8.0 | 0.00 | 0.00 | 0.00 | 86 | |
| 20260506030207 | 76 | 171 | 10.0 | 13.0 | 0.00 | 0.00 | 0.00 | 86 | |
| 20260506025704 | 77 | 187 | 5.0 | 9.0 | 0.00 | 0.00 | 0.00 | 85 | |
| 20260506025200 | 77 | 170 | 3.0 | 9.0 | 0.00 | 0.00 | 0.00 | 85 | |
| 20260506024657 | 77 | 138 | 2.0 | 8.0 | 0.00 | 0.00 | 0.00 | 84 | |
| 20260506024154 | 77 | 205 | 5.0 | 9.0 | 0.00 | 0.00 | 0.00 | 83 | |
| 20260506023650 | 78 | 160 | 4.0 | 9.0 | 0.00 | 0.00 | 0.00 | 83 | |
| 20260506023147 | 78 | 190 | 8.0 | 10.0 | 0.00 | 0.00 | 0.00 | 82 | |
| 20260506022644 | 78 | 160 | 3.0 | 8.0 | 0.00 | 0.00 | 0.00 | 81 | |
| 20260506022142 | 78 | 149 | 5.0 | 7.0 | 0.00 | 0.00 | 0.00 | 81 | |
| 20260506021640 | 78 | 183 | 2.0 | 7.0 | 0.00 | 0.00 | 0.00 | 81 | |
| 20260506021136 | 78 | 133 | 3.0 | 10.0 | 0.00 | 0.00 | 0.00 | 80 | |
| 20260506020633 | 78 | 155 | 1.0 | 6.0 | 0.00 | 0.00 | 0.00 | 80 | |
| 20260506020131 | 78 | 164 | 3.0 | 7.0 | 0.00 | 0.00 | 0.00 | 80 | |
| 20260506015628 | 78 | 161 | 6.0 | 9.0 | 0.00 | 0.00 | 0.00 | 80 | |
| 20260506015125 | 79 | 130 | 6.0 | 11.0 | 0.00 | 0.00 | 0.00 | 80 | |
| 20260506014623 | 79 | 138 | 4.0 | 7.0 | 0.00 | 0.00 | 0.00 | 79 | |
| 20260506014118 | 79 | 134 | 3.0 | 5.0 | 0.00 | 0.00 | 0.00 | 79 | |
| 20260506013617 | 79 | 125 | 2.0 | 7.0 | 0.00 | 0.00 | 0.00 | 79 | |
| 20260506013113 | 79 | 145 | 5.0 | 7.0 | 0.00 | 0.00 | 0.00 | 79 | |
| 20260506012609 | 79 | 148 | 6.0 | 8.0 | 0.00 | 0.00 | 0.00 | 78 | |
| 20260506012106 | 80 | 133 | 3.0 | 7.0 | 0.00 | 0.00 | 0.00 | 78 | |
| 20260506011604 | 80 | 124 | 4.0 | 6.0 | 0.00 | 0.00 | 0.00 | 77 | |
| 20260506011059 | 80 | 141 | 3.0 | 6.0 | 0.00 | 0.00 | 0.00 | 77 | |
| 20260506010554 | 80 | 148 | 3.0 | 6.0 | 0.00 | 0.00 | 0.00 | 76 | |
| 20260506010050 | 81 | 161 | 2.0 | 7.0 | 0.00 | 0.00 | 0.00 | 76 | |
| 20260506005547 | 81 | 140 | 3.0 | 5.0 | 0.00 | 0.00 | 0.00 | 75 | |
| 20260506005043 | 81 | 157 | 2.0 | 3.0 | 0.00 | 0.00 | 0.00 | 75 | |
| 20260506004541 | 82 | 134 | 5.0 | 6.0 | 0.00 | 0.00 | 0.00 | 74 | |
| 20260506004037 | 82 | 161 | 2.0 | 2.0 | 0.00 | 0.00 | 0.00 | 74 | |
| 20260506003534 | 82 | 147 | 2.0 | 3.0 | 0.00 | 0.00 | 0.00 | 73 | |
| 20260506003030 | 82 | 140 | 2.0 | 5.0 | 0.00 | 0.00 | 0.00 | 73 | |
| 20260506002526 | 82 | 143 | 2.0 | 5.0 | 0.00 | 0.00 | 0.00 | 72 | |
| 20260506002022 | 82 | 163 | 4.0 | 6.0 | 0.00 | 0.00 | 0.00 | 71 | |
| 20260506001518 | 82 | 170 | 2.0 | 5.0 | 0.00 | 0.00 | 0.00 | 71 | |
| 20260506001016 | 82 | 162 | 3.0 | 6.0 | 0.00 | 0.00 | 0.00 | 71 | |
| 20260506000513 | 82 | 202 | 7.0 | 8.0 | 0.00 | 0.00 | 0.00 | 71 | |
| 20260506000010 | 82 | 194 | 3.0 | 13.0 | 0.00 | 0.00 | 0.00 | 70 | |
| 20260505235508 | 82 | 188 | 7.0 | 9.0 | 0.00 | 0.00 | 0.00 | 70 | |
| 20260505235004 | 83 | 177 | 7.0 | 11.0 | 0.00 | 0.00 | 0.00 | 69 | |
| 20260505234502 | 83 | 182 | 7.0 | 10.0 | 0.00 | 0.00 | 0.00 | 69 | |
| 20260505233958 | 83 | 217 | 5.0 | 7.0 | 0.00 | 0.00 | 0.00 | 70 | |
| 20260505233456 | 83 | 211 | 4.0 | 8.0 | 0.00 | 0.00 | 0.00 | 70 | |
| 20260505232953 | 83 | 188 | 11.0 | 13.0 | 0.00 | 0.00 | 0.00 | 69 | |
| 20260505232451 | 83 | 187 | 7.0 | 11.0 | 0.00 | 0.00 | 0.00 | 69 | |
| 20260505231948 | 83 | 179 | 3.0 | 9.0 | 0.00 | 0.00 | 0.00 | 70 | |
| 20260505231445 | 82 | 170 | 5.0 | 10.0 | 0.00 | 0.00 | 0.00 | 70 | |
| 20260505230944 | 83 | 192 | 5.0 | 11.0 | 0.00 | 0.00 | 0.00 | 69 | |
| 20260505230441 | 83 | 183 | 6.0 | 10.0 | 0.00 | 0.00 | 0.00 | 69 | |
| 20260505225937 | 83 | 194 | 8.0 | 13.0 | 0.00 | 0.00 | 0.00 | 69 | |
| 20260505225434 | 83 | 146 | 6.0 | 10.0 | 0.00 | 0.00 | 0.00 | 70 | |
| 20260505224930 | 83 | 188 | 7.0 | 13.0 | 0.00 | 0.00 | 0.00 | 69 | |
| 20260505224427 | 83 | 157 | 4.0 | 7.0 | 0.00 | 0.00 | 0.00 | 69 | |
| 20260505223924 | 83 | 178 | 2.0 | 11.0 | 0.00 | 0.00 | 0.00 | 69 | |
| 20260505223421 | 83 | 174 | 7.0 | 13.0 | 0.00 | 0.00 | 0.00 | 68 | |
| 20260505222918 | 83 | 160 | 11.0 | 16.0 | 0.00 | 0.00 | 0.00 | 68 | |
| 20260505222414 | 83 | 213 | 6.0 | 10.0 | 0.00 | 0.00 | 0.00 | 69 | |
| 20260505221910 | 84 | 194 | 3.0 | 11.0 | 0.00 | 0.00 | 0.00 | 69 | |
| 20260505221408 | 84 | 223 | 6.0 | 10.0 | 0.00 | 0.00 | 0.00 | 68 | |
| 20260505220904 | 84 | 201 | 8.0 | 9.0 | 0.00 | 0.00 | 0.00 | 66 | |
| 20260505220401 | 84 | 175 | 5.0 | 10.0 | 0.00 | 0.00 | 0.00 | 68 | |
| 20260505215859 | 85 | 146 | 10.0 | 13.0 | 0.00 | 0.00 | 0.00 | 65 | |
| 20260505215357 | 85 | 170 | 2.0 | 7.0 | 0.00 | 0.00 | 0.00 | 66 | |
| 20260505214855 | 84 | 178 | 5.0 | 9.0 | 0.00 | 0.00 | 0.00 | 67 | |
| 20260505214352 | 84 | 167 | 4.0 | 15.0 | 0.00 | 0.00 | 0.00 | 67 | |
| 20260505213849 | 84 | 168 | 9.0 | 16.0 | 0.00 | 0.00 | 0.00 | 67 | |
| 20260505213347 | 84 | 162 | 9.0 | 16.0 | 0.00 | 0.00 | 0.00 | 66 | |
| 20260505212843 | 84 | 231 | 9.0 | 16.0 | 0.00 | 0.00 | 0.00 | 65 | |
| 20260505212340 | 84 | 183 | 8.0 | 11.0 | 0.00 | 0.00 | 0.00 | 65 | |
| 20260505211836 | 84 | 249 | 7.0 | 15.0 | 0.00 | 0.00 | 0.00 | 66 | |
| 20260505211334 | 84 | 205 | 4.0 | 9.0 | 0.00 | 0.00 | 0.00 | 66 | |
| 20260505210830 | 84 | 151 | 5.0 | 11.0 | 0.00 | 0.00 | 0.00 | 66 | |
| 20260505210327 | 85 | 142 | 9.0 | 16.0 | 0.00 | 0.00 | 0.00 | 65 | |
| 20260505205824 | 84 | 187 | 6.0 | 9.0 | 0.00 | 0.00 | 0.00 | 65 | |
| 20260505205322 | 84 | 153 | 6.0 | 13.0 | 0.00 | 0.00 | 0.00 | 66 | |
| 20260505204818 | 84 | 184 | 9.0 | 11.0 | 0.00 | 0.00 | 0.00 | 65 | |
| 20260505204317 | 84 | 214 | 9.0 | 13.0 | 0.00 | 0.00 | 0.00 | 66 | |
| 20260505203814 | 84 | 158 | 3.0 | 14.0 | 0.00 | 0.00 | 0.00 | 65 | |
| 20260505203310 | 84 | 199 | 8.0 | 16.0 | 0.00 | 0.00 | 0.00 | 65 | |
| 20260505202806 | 83 | 105 | 4.0 | 11.0 | 0.00 | 0.00 | 0.00 | 67 | |
| 20260505202306 | 84 | 179 | 5.0 | 14.0 | 0.00 | 0.00 | 0.00 | 66 | |
| 20260505201759 | 83 | 205 | 3.0 | 10.0 | 0.00 | 0.00 | 0.00 | 69 | |
| 20260505201257 | 83 | 207 | 8.0 | 11.0 | 0.00 | 0.00 | 0.00 | 68 | |
| 20260505200755 | 83 | 199 | 6.0 | 9.0 | 0.00 | 0.00 | 0.00 | 68 | |
| 20260505200252 | 83 | 168 | 8.0 | 11.0 | 0.00 | 0.00 | 0.00 | 67 | |
| 20260505195747 | 83 | 228 | 6.0 | 13.0 | 0.00 | 0.00 | 0.00 | 66 | |
| 20260505195245 | 83 | 181 | 7.0 | 11.0 | 0.00 | 0.00 | 0.00 | 67 | |
| 20260505194742 | 83 | 127 | 7.0 | 11.0 | 0.00 | 0.00 | 0.00 | 68 | |
| 20260505194238 | 82 | 147 | 3.0 | 10.0 | 0.00 | 0.00 | 0.00 | 68 | |
| 20260505193734 | 82 | 164 | 1.0 | 8.0 | 0.00 | 0.00 | 0.00 | 69 | |
| 20260505193232 | 82 | 195 | 9.0 | 11.0 | 0.00 | 0.00 | 0.00 | 68 | |
| 20260505192730 | 83 | 184 | 6.0 | 14.0 | 0.00 | 0.00 | 0.00 | 69 | |
| 20260505192227 | 82 | 211 | 4.0 | 14.0 | 0.00 | 0.00 | 0.00 | 69 | |
| 20260505191720 | 83 | 203 | 11.0 | 14.0 | 0.00 | 0.00 | 0.00 | 67 | |
| 20260505191218 | 82 | 209 | 4.0 | 9.0 | 0.00 | 0.00 | 0.00 | 70 | |
| 20260505190714 | 82 | 172 | 6.0 | 15.0 | 0.00 | 0.00 | 0.00 | 69 | |
| 20260505190213 | 82 | 230 | 10.0 | 13.0 | 0.00 | 0.00 | 0.00 | 70 | |
| 20260505185710 | 81 | 157 | 6.0 | 8.0 | 0.00 | 0.00 | 0.00 | 71 | |
| 20260505185207 | 81 | 174 | 4.0 | 14.0 | 0.00 | 0.00 | 0.00 | 70 | |
| 20260505184703 | 81 | 215 | 6.0 | 9.0 | 0.00 | 0.00 | 0.00 | 71 | |
| 20260505184200 | 81 | 214 | 8.0 | 10.0 | 0.00 | 0.00 | 0.00 | 73 | |
| 20260505183657 | 80 | 187 | 3.0 | 11.0 | 0.00 | 0.00 | 0.00 | 74 | |
| 20260505183155 | 79 | 237 | 6.0 | 11.0 | 0.00 | 0.00 | 0.00 | 74 | |
| 20260505182650 | 78 | 184 | 3.0 | 11.0 | 0.00 | 0.00 | 0.00 | 76 | |
| 20260505182148 | 78 | 177 | 11.0 | 15.0 | 0.00 | 0.00 | 0.00 | 76 | |
| 20260505181644 | 78 | 226 | 11.0 | 14.0 | 0.00 | 0.00 | 0.00 | 77 | |
| 20260505181142 | 77 | 236 | 9.0 | 11.0 | 0.00 | 0.00 | 0.00 | 78 | |
| 20260505180638 | 77 | 204 | 4.0 | 11.0 | 0.00 | 0.00 | 0.00 | 79 | |
| 20260505180135 | 77 | 200 | 6.0 | 10.0 | 0.00 | 0.00 | 0.00 | 79 | |
| 20260505175631 | 76 | 230 | 8.0 | 11.0 | 0.00 | 0.00 | 0.00 | 80 | |
| 20260505175128 | 76 | 176 | 6.0 | 11.0 | 0.00 | 0.00 | 0.00 | 80 | |
| 20260505174624 | 76 | 184 | 4.0 | 10.0 | 0.00 | 0.00 | 0.00 | 80 | |
| 20260505174120 | 76 | 218 | 6.0 | 10.0 | 0.00 | 0.00 | 0.00 | 81 | |
| 20260505173617 | 75 | 220 | 5.0 | 10.0 | 0.00 | 0.00 | 0.00 | 82 | |
| 20260505173114 | 75 | 207 | 8.0 | 11.0 | 0.00 | 0.00 | 0.00 | 82 | |
| 20260505172612 | 75 | 238 | 4.0 | 10.0 | 0.00 | 0.00 | 0.00 | 83 | |
| 20260505172108 | 75 | 226 | 5.0 | 8.0 | 0.00 | 0.00 | 0.00 | 83 | |
| 20260505171603 | 75 | 227 | 2.0 | 6.0 | 0.00 | 0.00 | 0.00 | 83 | |
| 20260505171100 | 75 | 229 | 4.0 | 13.0 | 0.00 | 0.00 | 0.00 | 83 | |
| 20260505170557 | 74 | 178 | 4.0 | 7.0 | 0.00 | 0.00 | 0.00 | 84 | |
| 20260505170053 | 74 | 214 | 8.0 | 13.0 | 0.00 | 0.00 | 0.00 | 84 | |
| 20260505165548 | 73 | 190 | 8.0 | 11.0 | 0.00 | 0.00 | 0.00 | 85 | |
| 20260505165044 | 73 | 173 | 5.0 | 11.0 | 0.00 | 0.00 | 0.00 | 85 | |
| 20260505164540 | 73 | 189 | 9.0 | 14.0 | 0.00 | 0.00 | 0.00 | 85 | |
| 20260505164038 | 73 | 232 | 7.0 | 16.0 | 0.00 | 0.00 | 0.00 | 85 | |
| 20260505163536 | 73 | 209 | 7.0 | 9.0 | 0.00 | 0.00 | 0.00 | 86 | |
| 20260505163033 | 73 | 185 | 7.0 | 14.0 | 0.00 | 0.00 | 0.00 | 85 | |
| 20260505162521 | 73 | 187 | 4.0 | 6.0 | 0.00 | 0.00 | 0.00 | 86 | |
| 20260505162018 | 73 | 202 | 9.0 | 11.0 | 0.00 | 0.00 | 0.00 | 86 | |
| 20260505161514 | 72 | 197 | 4.0 | 10.0 | 0.00 | 0.00 | 0.00 | 86 | |
| 20260505161011 | 72 | 199 | 5.0 | 10.0 | 0.00 | 0.00 | 0.00 | 87 | |
| 20260505160510 | 72 | 158 | 6.0 | 13.0 | 0.00 | 0.00 | 0.00 | 87 | |
| 20260505152946 | 71 | 210 | 8.0 | 11.0 | 0.00 | 0.00 | 0.00 | 89 | |
| 20260505152443 | 71 | 198 | 5.0 | 10.0 | 0.00 | 0.00 | 0.00 | 90 | |
| 20260505151938 | 70 | 208 | 7.0 | 10.0 | 0.00 | 0.00 | 0.00 | 90 | |
| 20260505151433 | 70 | 213 | 6.0 | 11.0 | 0.00 | 0.00 | 0.00 | 91 | |
| 20260505150931 | 70 | 227 | 7.0 | 10.0 | 0.00 | 0.00 | 0.00 | 91 | |
| 20260505150428 | 70 | 194 | 7.0 | 11.0 | 0.00 | 0.00 | 0.00 | 91 | |
| 20260505140358 | 70 | 212 | 7.0 | 14.0 | 0.00 | 0.00 | 0.00 | 91 | |
| 20260505124811 | 69 | 182 | 5.0 | 7.0 | 0.00 | 0.00 | 0.00 | 91 | |
| 20260505124308 | 69 | 178 | 5.0 | 8.0 | 0.00 | 0.00 | 0.00 | 91 | |
| 20260505123804 | 69 | 213 | 5.0 | 10.0 | 0.00 | 0.00 | 0.00 | 91 | |
| 20260505123301 | 69 | 200 | 3.0 | 9.0 | 0.00 | 0.00 | 0.00 | 91 | |
| 20260505122757 | 69 | 193 | 6.0 | 9.0 | 0.00 | 0.00 | 0.00 | 91 | |
| 20260505122255 | 69 | 221 | 9.0 | 16.0 | 0.00 | 0.00 | 0.00 | 91 | |
| 20260505121751 | 69 | 206 | 4.0 | 13.0 | 0.00 | 0.00 | 0.00 | 91 | |
| 20260505121248 | 69 | 221 | 7.0 | 16.0 | 0.00 | 0.00 | 0.00 | 91 | |
| 20260505120744 | 69 | 207 | 9.0 | 17.0 | 0.00 | 0.00 | 0.00 | 91 | |
| 20260505120240 | 69 | 193 | 6.0 | 13.0 | 0.00 | 0.00 | 0.00 | 90 | |
| 20260505115739 | 69 | 191 | 6.0 | 7.0 | 0.00 | 0.00 | 0.00 | 90 | |
| 20260505115237 | 69 | 210 | 7.0 | 9.0 | 0.00 | 0.00 | 0.00 | 90 | |
| 20260505114734 | 69 | 197 | 6.0 | 10.0 | 0.00 | 0.00 | 0.00 | 90 | |
| 20260505114230 | 69 | 209 | 9.0 | 13.0 | 0.00 | 0.00 | 0.00 | 90 | |
| 20260505113727 | 69 | 170 | 7.0 | 14.0 | 0.00 | 0.00 | 0.00 | 90 | |
| 20260505113223 | 69 | 218 | 13.0 | 14.0 | 0.00 | 0.00 | 0.00 | 90 | |
| 20260505112720 | 69 | 195 | 12.0 | 17.0 | 0.00 | 0.00 | 0.00 | 90 | |
| 20260505112218 | 69 | 217 | 7.0 | 14.0 | 0.00 | 0.00 | 0.00 | 90 | |
| 20260505111717 | 69 | 188 | 9.0 | 15.0 | 0.00 | 0.00 | 0.00 | 90 | |
| 20260505111214 | 69 | 183 | 7.0 | 10.0 | 0.00 | 0.00 | 0.00 | 90 | |
| 20260505110709 | 69 | 229 | 3.0 | 9.0 | 0.00 | 0.00 | 0.00 | 90 | |
| 20260505110207 | 69 | 214 | 4.0 | 8.0 | 0.00 | 0.00 | 0.00 | 90 | |
| 20260505102142 | 69 | 203 | 6.0 | 9.0 | 0.00 | 0.00 | 0.00 | 91 | |
| 20260505101641 | 69 | 167 | 5.0 | 18.0 | 0.00 | 0.00 | 0.00 | 91 | |
| 20260505101137 | 69 | 184 | 7.0 | 15.0 | 0.00 | 0.00 | 0.00 | 90 | |
| 20260505100633 | 69 | 234 | 8.0 | 13.0 | 0.00 | 0.00 | 0.00 | 90 | |
| 20260505100130 | 69 | 221 | 6.0 | 15.0 | 0.00 | 0.00 | 0.00 | 90 | |
| 20260505095626 | 69 | 181 | 11.0 | 14.0 | 0.00 | 0.00 | 0.00 | 90 | |
| 20260505095124 | 69 | 211 | 6.0 | 15.0 | 0.00 | 0.00 | 0.00 | 90 | |
| 20260505094620 | 69 | 190 | 8.0 | 13.0 | 0.00 | 0.00 | 0.00 | 90 | |
| 20260505094116 | 69 | 180 | 5.0 | 9.0 | 0.00 | 0.00 | 0.00 | 90 | |
| 20260505093612 | 69 | 174 | 7.0 | 13.0 | 0.00 | 0.00 | 0.00 | 90 | |
| 20260505093110 | 69 | 189 | 9.0 | 13.0 | 0.00 | 0.00 | 0.00 | 90 | |
| 20260505092607 | 69 | 192 | 7.0 | 17.0 | 0.00 | 0.00 | 0.00 | 89 | |
| 20260505092106 | 69 | 220 | 9.0 | 11.0 | 0.00 | 0.00 | 0.00 | 89 | |
| 20260505091602 | 69 | 186 | 9.0 | 18.0 | 0.00 | 0.00 | 0.00 | 89 | |
| 20260505091100 | 69 | 199 | 11.0 | 17.0 | 0.00 | 0.00 | 0.00 | 89 | |
| 20260505090558 | 69 | 181 | 10.0 | 16.0 | 0.00 | 0.00 | 0.00 | 89 | |
| 20260505090056 | 69 | 210 | 7.0 | 17.0 | 0.00 | 0.00 | 0.00 | 89 | |
| 20260505085553 | 69 | 222 | 6.0 | 10.0 | 0.00 | 0.00 | 0.00 | 89 | |
| 20260505085051 | 69 | 174 | 6.0 | 14.0 | 0.00 | 0.00 | 0.00 | 89 | |
| 20260505084549 | 69 | 193 | 9.0 | 17.0 | 0.00 | 0.00 | 0.00 | 89 | |
| 20260505084047 | 69 | 184 | 10.0 | 15.0 | 0.00 | 0.00 | 0.00 | 89 | |
| 20260505083543 | 69 | 172 | 12.0 | 17.0 | 0.00 | 0.00 | 0.00 | 89 | |
| 20260505083040 | 69 | 190 | 8.0 | 13.0 | 0.00 | 0.00 | 0.00 | 89 | |
| 20260505082536 | 69 | 168 | 10.0 | 14.0 | 0.00 | 0.00 | 0.00 | 89 | |
| 20260505082033 | 69 | 225 | 13.0 | 17.0 | 0.00 | 0.00 | 0.00 | 89 | |
| 20260505081529 | 69 | 183 | 8.0 | 15.0 | 0.00 | 0.00 | 0.00 | 89 | |
| 20260505081027 | 69 | 191 | 7.0 | 17.0 | 0.00 | 0.00 | 0.00 | 89 | |
| 20260505080523 | 69 | 202 | 10.0 | 15.0 | 0.00 | 0.00 | 0.00 | 89 | |
| 20260505080020 | 69 | 191 | 9.0 | 16.0 | 0.00 | 0.00 | 0.00 | 89 | |
| 20260505075516 | 69 | 191 | 12.0 | 15.0 | 0.00 | 0.00 | 0.00 | 89 | |
| 20260505075013 | 69 | 210 | 9.0 | 14.0 | 0.00 | 0.00 | 0.00 | 89 | |
| 20260505074510 | 69 | 209 | 5.0 | 13.0 | 0.00 | 0.00 | 0.00 | 89 | |
| 20260505074007 | 69 | 205 | 3.0 | 14.0 | 0.00 | 0.00 | 0.00 | 88 | |
| 20260505073504 | 69 | 235 | 6.0 | 15.0 | 0.00 | 0.00 | 0.00 | 88 | |
| 20260505073002 | 69 | 199 | 10.0 | 21.0 | 0.00 | 0.00 | 0.00 | 88 | |
| 20260505072458 | 69 | 188 | 10.0 | 17.0 | 0.00 | 0.00 | 0.00 | 88 | |
| 20260505071954 | 69 | 171 | 8.0 | 16.0 | 0.00 | 0.00 | 0.00 | 88 | |
| 20260505071450 | 69 | 166 | 11.0 | 13.0 | 0.00 | 0.00 | 0.00 | 88 | |
| 20260505070948 | 69 | 186 | 7.0 | 14.0 | 0.00 | 0.00 | 0.00 | 88 |